Date String (YYYY-MM-DD hh:mm:ss) UTC,Instrument flags,Ambient pressure (hPa),Sample flow (lpm),Bypass flow (lpm),Sample temperature (°C),Ambient temperature (°C),ASC tube jacket temperature (°C),LED temperature (°C),Box temperature (°C),Sample RH (%),Span deviation,Mass concentration (μg/m³),Mass concentration (μg/m³),Mass concentration (μg/m³)
DateTimeUTC,F1_M11,P_M11,Q1_M11,Q2_M11,T1_M11,T2_M11,T3_M11,T4_M11,T5_M11,U1_M11,ZSPAN_M11,X0_M11,X2_M11,X1_M11
2023-01-11 02:00:00,,0817.6,5.02,0.00,22.0,20.7,00.0,30.9,23.8,13.9,0000.0,0000.37,0000.24,0000.19
2023-01-11 02:01:00,,0817.5,4.99,0.00,22.1,20.8,00.0,30.9,23.8,14.1,0000.0,0000.41,0000.26,0000.19
2023-01-11 02:02:00,,0817.6,5.00,0.00,22.1,20.8,00.0,30.9,23.8,14.1,0000.0,0000.41,0000.26,0000.19
2023-01-11 02:03:00,,0817.5,5.00,0.00,22.1,20.8,00.0,30.9,23.9,13.8,0000.0,0000.41,0000.25,0000.19
2023-01-11 02:04:00,,0817.5,5.00,0.00,22.1,20.8,00.0,30.9,23.9,14.3,0000.0,0000.39,0000.24,0000.19
2023-01-11 02:05:00,,0817.5,5.00,0.00,22.1,20.8,00.0,30.9,23.9,14.0,0000.0,0000.40,0000.25,0000.20
2023-01-11 02:06:00,,0817.4,5.00,0.00,22.1,20.8,00.0,30.9,23.9,14.2,0000.0,0000.45,0000.27,0000.20
2023-01-11 02:07:00,,0817.3,5.00,0.00,22.1,20.8,00.0,30.9,23.9,14.0,0000.0,0000.55,0000.30,0000.21
2023-01-11 02:08:00,,0817.3,5.00,0.00,22.1,20.9,00.0,30.9,23.9,14.1,0000.0,0000.57,0000.31,0000.20
2023-01-11 02:09:00,,0817.2,5.01,0.00,22.1,20.9,00.0,30.9,23.9,14.3,0000.0,0000.60,0000.32,0000.21
2023-01-11 02:10:00,,0817.1,5.00,0.00,22.1,20.9,00.0,30.9,23.9,14.2,0000.0,0000.61,0000.32,0000.21
2023-01-11 02:11:00,,0817.0,5.00,0.00,22.1,20.9,00.0,30.9,23.9,14.5,0000.0,0000.70,0000.36,0000.22
2023-01-11 02:12:00,,0817.0,5.00,0.00,22.1,20.9,00.0,30.9,23.9,13.9,0000.0,0000.70,0000.36,0000.22
2023-01-11 02:13:00,,0817.1,5.00,0.00,22.1,20.9,00.0,31.0,23.9,13.9,0000.0,0000.69,0000.37,0000.23
2023-01-11 02:14:00,,0817.1,5.01,0.00,22.1,20.9,00.0,31.0,23.9,14.1,0000.0,0000.72,0000.38,0000.24
2023-01-11 02:15:00,,0817.0,5.00,0.00,22.1,20.9,00.0,31.0,23.9,14.3,0000.0,0000.76,0000.40,0000.25
2023-01-11 02:16:00,,0816.9,5.00,0.00,22.1,20.9,00.0,31.0,23.9,14.0,0000.0,0000.74,0000.39,0000.25
2023-01-11 02:17:00,,0816.9,5.00,0.00,22.1,20.9,00.0,31.0,23.9,14.1,0000.0,0000.70,0000.38,0000.26
2023-01-11 02:18:00,,0817.1,5.00,0.00,22.1,20.8,00.0,31.0,23.9,14.1,0000.0,0000.63,0000.37,0000.27
2023-01-11 02:19:00,,0817.0,5.01,0.00,22.1,20.8,00.0,31.0,23.9,14.1,0000.0,0000.64,0000.38,0000.28
2023-01-11 02:20:00,,0817.1,5.00,0.00,22.1,20.8,00.0,31.0,23.9,14.3,0000.0,0000.66,0000.40,0000.30
2023-01-11 02:21:00,,0817.1,5.00,0.00,22.1,20.8,00.0,31.0,24.0,14.9,0000.0,0000.72,0000.43,0000.31
2023-01-11 02:22:00,,0817.0,5.00,0.00,22.1,20.9,00.0,31.0,24.0,14.5,0000.0,0000.69,0000.42,0000.31
2023-01-11 02:23:00,,0817.0,5.00,0.00,22.2,20.9,00.0,31.0,24.0,14.2,0000.0,0000.72,0000.40,0000.32
2023-01-11 02:24:00,,0817.0,5.00,0.00,22.2,21.0,00.0,31.0,24.0,14.1,0000.0,0000.71,0000.40,0000.32
2023-01-11 02:25:00,,0817.1,5.01,0.00,22.2,21.0,00.0,31.0,24.0,14.5,0000.0,0000.69,0000.39,0000.32
2023-01-11 02:26:00,,0817.0,5.00,0.00,22.2,21.0,00.0,31.0,23.9,14.7,0000.0,0000.68,0000.39,0000.33
2023-01-11 02:27:00,,0816.9,4.99,0.00,22.2,20.9,00.0,31.0,23.9,14.7,0000.0,0000.68,0000.40,0000.33
2023-01-11 02:28:00,,0816.9,5.01,0.00,22.2,20.9,00.0,31.0,23.9,14.7,0000.0,0000.68,0000.41,0000.34
2023-01-11 02:29:00,,0816.9,4.99,0.00,22.2,20.9,00.0,31.0,23.9,14.5,0000.0,0000.67,0000.40,0000.35
2023-01-11 02:30:00,,0816.9,5.01,0.00,22.2,20.9,00.0,31.0,23.8,14.4,0000.0,0000.66,0000.40,0000.35
2023-01-11 02:31:00,,0817.0,5.02,0.00,22.2,20.9,00.0,31.0,23.8,14.4,0000.0,0000.67,0000.40,0000.35
2023-01-11 02:32:00,,0817.0,4.99,0.00,22.2,20.9,00.0,31.0,23.9,14.4,0000.0,0000.66,0000.41,0000.35
2023-01-11 02:33:00,,0817.0,5.00,0.00,22.2,20.9,00.0,31.0,23.9,14.4,0000.0,0000.68,0000.42,0000.36
2023-01-11 02:34:00,,0817.0,5.04,0.00,22.2,20.9,00.0,31.0,23.9,14.6,0000.0,0000.59,0000.42,0000.36
2023-01-11 02:35:00,,0817.0,5.01,0.00,22.2,20.9,00.0,31.0,23.9,14.6,0000.0,0000.64,0000.45,0000.37
2023-01-11 02:36:00,,0817.0,4.99,0.00,22.2,20.9,00.0,31.0,23.9,14.4,0000.0,0000.68,0000.48,0000.38
2023-01-11 02:37:00,,0817.0,5.00,0.00,22.2,20.9,00.0,31.0,23.9,14.3,0000.0,0000.69,0000.48,0000.38
2023-01-11 02:38:00,,0817.0,5.00,0.00,22.2,20.9,00.0,31.0,23.9,14.2,0000.0,0000.70,0000.48,0000.38
2023-01-11 02:39:00,,0816.9,5.03,0.00,22.2,20.9,00.0,31.0,23.9,14.1,0000.0,0000.71,0000.49,0000.38
2023-01-11 02:40:00,,0816.9,4.99,0.00,22.2,20.9,00.0,31.0,23.9,14.4,0000.0,0000.73,0000.49,0000.38
2023-01-11 02:41:00,,0816.8,5.00,0.00,22.2,20.9,00.0,31.0,23.9,14.0,0000.0,0000.85,0000.51,0000.38
2023-01-11 02:42:00,,0816.9,5.00,0.00,22.2,20.9,00.0,31.0,23.9,13.6,0000.0,0000.96,0000.51,0000.38
2023-01-11 02:43:00,,0816.9,5.00,0.00,22.2,20.9,00.0,31.0,23.9,13.6,0000.0,0000.94,0000.50,0000.38
2023-01-11 02:44:00,,0817.0,5.00,0.00,22.2,20.9,00.0,31.0,23.9,13.6,0000.0,0000.89,0000.48,0000.37
2023-01-11 02:45:00,,0817.0,5.01,0.00,22.2,20.9,00.0,31.0,23.9,13.6,0000.0,0000.93,0000.50,0000.37
2023-01-11 02:46:00,,0817.1,4.99,0.00,22.2,20.9,00.0,31.0,23.9,14.0,0000.0,0001.00,0000.52,0000.38
2023-01-11 02:47:00,,0817.1,5.02,0.00,22.2,20.9,00.0,31.0,24.0,13.6,0000.0,0000.95,0000.49,0000.37
2023-01-11 02:48:00,,0817.0,5.00,0.00,22.2,20.9,00.0,31.0,23.9,13.6,0000.0,0000.94,0000.49,0000.37
2023-01-11 02:49:00,,0817.1,4.98,0.00,22.2,20.9,00.0,31.0,23.9,13.1,0000.0,0001.00,0000.49,0000.36
2023-01-11 02:50:00,,0816.9,4.99,0.00,22.2,20.9,00.0,31.0,23.9,13.7,0000.0,0001.77,0000.50,0000.37
2023-01-11 02:51:00,,0817.2,5.03,0.00,22.2,20.9,00.0,31.0,23.9,14.2,0000.0,0001.78,0000.51,0000.38
2023-01-11 02:52:00,,0817.0,5.00,0.00,22.2,20.9,00.0,31.0,23.9,13.9,0000.0,0001.64,0000.49,0000.38
2023-01-11 02:53:00,,0817.0,4.99,0.00,22.2,20.9,00.0,31.0,23.9,13.8,0000.0,0001.53,0000.48,0000.38
2023-01-11 02:54:00,,0816.9,4.99,0.00,22.2,20.9,00.0,31.0,23.9,13.9,0000.0,0001.55,0000.49,0000.39
2023-01-11 02:55:00,,0817.0,5.00,0.00,22.2,20.9,00.0,31.0,23.9,13.7,0000.0,0001.73,0000.52,0000.40
2023-01-11 02:56:00,,0816.8,4.99,0.00,22.2,20.9,00.0,31.0,24.0,13.6,0000.0,0001.79,0000.51,0000.40
2023-01-11 02:57:00,,0816.8,5.00,0.00,22.2,20.9,00.0,31.0,23.9,13.9,0000.0,0001.68,0000.47,0000.40
2023-01-11 02:58:00,,0816.9,5.00,0.00,22.2,20.9,00.0,31.0,23.9,14.1,0000.0,0001.68,0000.47,0000.40
2023-01-11 02:59:00,,0816.9,5.01,0.00,22.2,20.9,00.0,31.0,23.9,13.6,0000.0,0001.70,0000.48,0000.40
